Preview of NWS' New Version of Forecast
This preview is not operational and should not be used for support decisions.
Latest weather observations around

Lake Charles, Lake Charles Regional Airport (KLCH)

Using English Units (Switch to International System of Units)
Date/ Time (CDT) Wind (mph) Vis. (mi) Weather Sky Cond. Temp (°F) Rel. Humidity Wind Chill (°F) Heat Index (°F) Pressure Precip. (in)
Air Dwpt 6 hour Altimeter (inHg) Sea level (inHg) 1 hr 3 hr 6 hr
Max Min
Jun 25 03:53 ESE 8 10 Clear CLR 78 73     85%   80 29.96 29.98      
Jun 25 02:53 E 3 10 Mostly Clear FEW120 77 73     88%   79 29.96 29.98      
Jun 25 01:53 E 3 10 Clear CLR 77 73     88%   79 29.96 29.98      
Jun 25 00:53 E 3 10 Clear CLR 77 72     84%   78 29.97 29.99      
Jun 24 23:53 ESE 3 10 Clear CLR 77 72     84%   78 29.95 29.98      
Jun 24 22:53 E 6 10 Clear CLR 77 72     84%   78 29.93 29.96      
Jun 24 21:53 E 7 10 Clear CLR 77 73     88%   79 29.91 29.93      
Jun 24 20:53 E 3 10 Clear CLR 77 73     88%   79 29.93 29.95      
Jun 24 19:53 E 6 10 Clear   79 73     82%   82 29.92 29.95      
Jun 24 18:53 E 3 10 Clear CLR 81 71     72%   85 29.93 29.95      
Jun 24 17:53 Calm 10 Clear CLR 83 70     65%   87 29.93 29.95      
Jun 24 16:53 3 10 Clear   82 70     67%   86 29.92 29.94      
Jun 24 15:53 Calm 10 Clear CLR 80 69     69%   83 29.94 29.96      
Jun 24 14:53 ESE 8 10 Clear CLR 77 68     74%   78 29.95 29.97      
Jun 24 13:53 SE 17 10 Clear CLR 76 68     76%   77 29.98 30      
Jun 24 12:53 SSE 21 10 Mostly Clear and Windy FEW070 FEW090 FEW110 72 68     87%   73 29.94 29.96 0   0
Jun 24 11:53 SSE 9 9 Light Rain FEW120 71 68     90%   72 30.03 30.05 0    
Jun 24 10:53 SE 7 7 Light Rain FEW085 BKN110 71 67     87%   72 30.05 30.07 0    
Jun 24 09:53 3 10 Light Rain FEW050 SCT065 OVC090 70 67     90%     30.07 30.09 0 0  
Jun 24 08:53 E 8 5 Rain and Fog/Mist SCT075 BKN090 OVC110 69 66     90%     30.05 30.07 0    
Jun 24 08:26 E 7 3 Heavy Rain and Fog/Mist FEW055 BKN090 OVC110 69 66     90%     30.04   0    
Jun 24 08:11 E 8 8 Light Rain FEW055 BKN100 OVC110 69 66     90%     30.04   0    
Jun 24 07:53 E 9 5 Heavy Rain and Fog/Mist SCT060 BKN090 OVC120 69 66     90%     30.03 30.05 0    
Jun 24 07:04 NE 11 9 Light Rain SCT050 BKN060 OVC075 68 65     90%     30.03   0    
Jun 24 06:53 ENE 11 5 Heavy Rain and Fog/Mist FEW034 BKN048 OVC055 68 66     93%     30.02 30.04 0   1
Jun 24 06:49 ENE 10 5 Heavy Rain and Fog/Mist SCT044 OVC060 68 66     94%     30.01   0    
Jun 24 06:42 NNE 13 4 Heavy Rain and Fog/Mist FEW036 BKN055 OVC100 68 66     93%     30.01   0    
Jun 24 06:17 NNE 17 3 Heavy Rain and Fog/Mist BKN034 OVC110 69 65     87%     30   0    
Jun 24 06:13 NNE 17 2 Thunderstorms and Heavy Rain and Fog/Mist BKN030 OVC037 69 65     87%     29.98   0    
Jun 24 06:07 NNE 18 3 Thunderstorms and Heavy Rain and Fog/Mist BKN024 OVC037 69 65     87%     29.96   0    
Jun 24 06:00 NE 20 2 Thunderstorms and Rain and Haze BKN024 OVC037 68 66     93%     29.99   0    
Jun 24 05:53   1 Thunderstorms and Heavy Rain and Haze BKN018 OVC037 68 66     93%     29.98 30.01 1    
Jun 24 05:41   1.75 Thunderstorms and Heavy Rain and Haze FEW015 BKN024 OVC037 69 66     90%     29.97   0    
Jun 24 05:13   10 Thunderstorms and Haze BKN022 BKN028 OVC050 72 65     79%   73 29.92        
Jun 24 05:00   9 Haze FEW016 BKN023 OVC050 76 68     76%   77 29.94        
Jun 24 04:53 N 8 8 Thunderstorms and Haze SCT023 BKN035 OVC065 84 77     80%   94 29.94 29.96      
Jun 24 04:50 N 5 8 Thunderstorms and Haze SCT023 BKN029 OVC050 84 77     79%   94 29.93        
Jun 24 04:09 S 6 8 Haze SCT022 BKN028 OVC041 84 77     80%   94 29.89        
Jun 24 03:53 S 8 8 Haze FEW024 BKN034 OVC045 84 77     80%   94 29.87 29.89      
Jun 24 02:53 S 7 8 Haze OVC035 84 76     77%   93 29.87 29.9      
Jun 24 01:53 S 9 8 Haze BKN034 84 76     77%   93 29.88 29.9      
Jun 24 01:03 S 8 8 Haze SCT027 84 76     77%   93 29.9        
Jun 24 00:53 S 7 8 Haze BKN027 84 76     77%   93 29.9 29.92      
Jun 23 23:53 S 10 8 Haze FEW020 OVC034 85 77     77%   95 29.89 29.91      
Jun 23 22:53 S 9 8 Haze OVC032 85 77     77%   95 29.89 29.92      
Jun 23 22:36 S 9 8 Haze OVC030 85 77     77%   95 29.9        
Jun 23 21:53 S 10 8 Haze FEW019 OVC029 85 78     80%   97 29.87 29.89      
Jun 23 21:49 S 11 8 Haze FEW019 OVC029 84 79     84%   96 29.87        
Jun 23 20:53 S 11 8 Haze FEW021 FEW025 OVC030 85 78     80%   97 29.87 29.89      
Jun 23 20:41 S 9 8 Haze SCT021 OVC030 85 78     80%   97 29.87        
Jun 23 20:17 S 9 7 Haze FEW021 OVC029 86 78     77%   98 29.86        
Jun 23 19:53 S 10 6 Haze SCT023 BKN031 86 78     77%   98 29.87 29.89      
Jun 23 18:53 S 13 6 Haze SCT023 BKN031 88 78     73%   102 29.87 29.89     0
Jun 23 18:45 S 9 8 Cloudy SCT023 BKN028 OVC033 88 78     73%   102 29.87        
Jun 23 17:53 S 15 8 Cloudy FEW022 BKN035 OVC070 88 78     73%   102 29.88 29.9      
Jun 23 16:53 S 11 8 Mostly Cloudy SCT027 BKN034 90 78     68%   105 29.9 29.92 0    
Jun 23 15:53 S 10 8 Light Rain SCT027 BKN037 BKN050 89 79     72%   105 29.91 29.93 0 0  
Jun 23 15:29 S 15 9 Mostly Cloudy BKN028 BKN032 91 79     68%   108 29.92        
Jun 23 14:53 SSW 13 9 Mostly Cloudy SCT025 SCT031 BKN037 91 78     66%   106 29.93 29.95      
Jun 23 14:43 S 14 9 Mostly Cloudy BKN027 BKN034 90 78     68%   105 29.93        
Jun 23 14:15 S 14 9 Mostly Cloudy SCT027 BKN036 91 78     66%   106 29.94        
Jun 23 14:06 SSW 13 9 Mostly Cloudy BKN027 BKN034 BKN060 91 78     66%   106 29.94        
Jun 23 13:53 S 10 9 Mostly Cloudy SCT026 BKN032 BKN060 90 78     68%   105 29.95 29.97      
Jun 23 13:03 SSW 11 10 Mostly Cloudy SCT030 BKN034 91 76     61%   103 29.95        
Jun 23 12:53 SSW 10 10 Mostly Cloudy BKN028 90 77     66%   103 29.96 29.98      
Jun 23 12:01 SSW 13 10 Mostly Cloudy SCT027 BKN035 91 77     64%   105 29.96        
Jun 23 11:53 SSW 15 10 Cloudy BKN026 BKN032 OVC043 90 77     66%   103 29.97 29.99      
Jun 23 11:21 S 9 9 Mostly Cloudy BKN025 BKN034 BKN043 90 77     66%   103 29.97        
Jun 23 10:53 SSW 11 9 Mostly Cloudy FEW028 BKN038 87 76     70%   98 29.98 30      
Jun 23 09:53 S 13 10 Partly Cloudy SCT027 87 76     70%   98 29.98 30      
Jun 23 08:53 S 13 9 Mostly Cloudy FEW023 SCT030 BKN035 88 76     68%   99 29.99 30.01      
Jun 23 07:53 S 8 9 Mostly Cloudy FEW025 BKN034 84 77     80%   94 29.97 29.99      
Jun 23 06:53 S 8 8 Clear CLR 83 77     82%   92 29.97 29.99      
Jun 23 05:53 S 8 9 Clear CLR 83 77     82%   92 29.96 29.98      
Jun 23 04:53 S 9 9 Clear   84 77     80%   94 29.96 29.98      
Jun 23 04:18 S 10 8 Partly Cloudy FEW019 SCT026 SCT032 84 77     80%   94 29.96        
Jun 23 04:06 S 8 9 Mostly Cloudy SCT019 BKN026 BKN030 84 77     80%   94 29.96        
Jun 23 03:53 S 8 9 Partly Cloudy SCT026 SCT031 84 77     80%   94 29.95 29.97      
Jun 23 03:02 S 8 7 Partly Cloudy FEW018 SCT025 SCT030 84 78     82%   95 29.97        
Jun 23 02:53 SSE 7 7 Mostly Cloudy BKN020 BKN028 84 78     82%   95 29.97 29.99      
Jun 23 02:14 S 8 8 Mostly Cloudy BKN020 BKN027 84 77     80%   94 29.98        
Jun 23 01:53 S 8 8 Mostly Clear FEW022 84 77     80%   94 29.98 30      
Jun 23 00:53 S 9 8 Clear CLR 84 77     80%   94 29.99 30.01      
Jun 22 23:53 SSE 9 8 Mostly Clear FEW020 84 78     82%   95 30 30.02      
Jun 22 23:01 SSE 8 8 Partly Cloudy FEW020 SCT026 84 78     82%   95 29.99        
Jun 22 22:53 SSE 8 8 Mostly Cloudy FEW020 BKN028 84 78     82%   95 29.99 30.01      
Jun 22 22:00 SSE 10 8 Cloudy OVC028 84 79     85%   96 29.98        
Jun 22 21:53 SSE 9 8 Partly Cloudy SCT019 85 78     80%   97 29.98 30      
Jun 22 21:08 SSE 8 8 Partly Cloudy SCT019 85 78     80%   97 29.98        
Jun 22 20:53 S 10 8 Cloudy SCT019 OVC029 85 78     80%   97 29.98 30      
Jun 22 19:53 SSE 10 7 Cloudy FEW019 FEW024 OVC031 86 79     80%   100 29.98 30      
Jun 22 18:53 S 14 8 Mostly Cloudy SCT023 SCT028 BKN034 88 78     73%   102 29.97 29.99      
Jun 22 17:53 S 11 8 Mostly Cloudy SCT025 BKN034 BKN080 89 78     70%   103 29.99 30.01      
Jun 22 17:51 S 10 8 Mostly Cloudy SCT025 BKN032 BKN039 90 79     71%   105 29.99        
Jun 22 17:31 S 11 8 Cloudy BKN025 OVC034 90 79     70%   106 29.99        
Jun 22 16:53 S 9 8 Mostly Cloudy SCT026 BKN034 BKN041 90 78     68%   105 30 30.02      
Jun 22 16:31 S 13 8 Mostly Cloudy SCT025 BKN033 BKN039 90 78     68%   105 30        
Jun 22 16:04 S 10 9 Mostly Cloudy BKN025 BKN031 91 79     68%   108 30        
Jun 22 15:53 S 10 9 Mostly Cloudy SCT025 BKN034 BKN060 91 79     68%   108 30 30.02      
Jun 22 15:19 SSE 10 8 Cloudy BKN026 BKN032 OVC041 89 78     70%   103 30.01        
Jun 22 14:53 S 10 9 Mostly Cloudy SCT028 BKN036 BKN043 91 79     68%   108 30.01 30.03      
Jun 22 13:53 SSW 10 9 Mostly Cloudy SCT030 BKN038 90 77     66%   103 30.02 30.03      
Jun 22 12:53 S 11 9 Partly Cloudy SCT028 SCT033 90 77     66%   103 30.03 30.05      
Jun 22 11:53 S 8 9 Mostly Cloudy SCT026 BKN037 BKN046 89 77     68%   102 30.03 30.06      
Jun 22 10:53 S 13 9 Partly Cloudy FEW030 SCT038 89 76     65%   100 30.04 30.06      
Jun 22 09:53 S 11 8 Mostly Cloudy SCT025 SCT031 BKN038 88 76     68%   99 30.03 30.05      
Jun 22 09:42 SSW 10 8 Cloudy SCT024 BKN030 OVC037 86 76     72%   96 30.03        
Jun 22 09:34 SSW 13 8 Cloudy SCT024 BKN029 OVC035 86 76     72%   96 30.03        
Jun 22 08:53 S 11 8 Cloudy FEW025 FEW030 OVC036 87 76     70%   98 30.02 30.04      
Jun 22 07:53 S 11 8 Mostly Cloudy FEW025 BKN033 85 77     77%   95 30.01 30.03      
Jun 22 07:38 S 11 7 Mostly Cloudy BKN031 85 77     77%   95 30        
Jun 22 06:53 S 7 7 Cloudy SCT023 OVC027 83 77     82%   92 29.99 30.01      
Notice The following observation data may not be complete
May 14 06:06 Calm 1 Fog/Mist VV004          %     30        
Notice The following observation data may not be complete
May 14 05:44 Calm 3 Fog/Mist OVC003          %     30        
May 13 23:53 SSE 3 10 Clear CLR 73 72     96%   75 30.02 30.04      
May 11 18:53 S 10 10 Mostly Clear FEW031 81 67     62%   83 29.98 30      
Jun 11 15:19 SSE 13 10 Partly Cloudy FEW027 SCT033 89 75     63%   99 29.93        
Jun 10 18:53 SSE 11 10 Mostly Clear FEW032 83 70     65%   87 29.92 29.94      
Jun 08 13:53 NE 11 10 Clear CLR 87 57     36%   86 29.93 29.95      
Jun 08 10:53 ENE 8 10 Clear CLR 82 60     47%   82 29.98 30      
Jun 07 20:37 NNE 8 10 Mostly Clear FEW002 79 62     56%   79 29.87        
Jun 07 10:53 N 13 10 Clear CLR 83 69     63%   87 29.86 29.88      
Jun 06 15:02 NE 13 10 Mostly Cloudy FEW035 SCT047 BKN090 81 71     72%   85 29.7        
Jun 06 09:53 N 10 10 Mostly Cloudy BKN014 80 72     76%   84 29.75 29.77      
Jun 05 17:53 Calm 10 Mostly Clear FEW013 75 70     84%   76 29.69 29.71